• In Österreich
  • Länderverzeichnis
  • Für 7 Tage
  • Wassertemperatur
  • Satellitenkarten
  • Wetterkarte
  • News
  • Widgets
  • user-avatar
    Anmelden

    Stündliche Wetter Salta

    Heute, 18 Juli, Mittwoch

    Zeit Temperatur Niederschläge Wind Luftdruck Luftfeuchtigkeit
    00:00 +16°C° 0 mm 2 m/S 650 mmHg 58%
    01:00 +16°C° 0 mm 2 m/S 650 mmHg 56%
    02:00 +16°C° 0 mm 2 m/S 650 mmHg 55%
    03:00 +16°C° 0 mm 2 m/S 650 mmHg 55%
    04:00 +16°C° 0 mm 2 m/S 649 mmHg 55%
    05:00 +16°C° 0 mm 2 m/S 649 mmHg 55%
    06:00 +16°C° 0 mm 2 m/S 650 mmHg 54%
    07:00 +17°C° 0 mm 2 m/S 650 mmHg 54%
    08:00 +17°C° 0 mm 2 m/S 650 mmHg 53%
    09:00 +19°C° 0 mm 2 m/S 651 mmHg 50%
    10:00 +21°C° 0 mm 3 m/S 651 mmHg 47%
    11:00 +24°C° 0 mm 3 m/S 651 mmHg 43%
    12:00 +25°C° 0 mm 3 m/S 651 mmHg 41%
    13:00 +26°C° 0 mm 3 m/S 650 mmHg 39%
    14:00 +27°C° 0 mm 4 m/S 650 mmHg 37%
    15:00 +26°C° 0 mm 3 m/S 649 mmHg 41%
    16:00 +24°C° 0 mm 3 m/S 649 mmHg 46%
    17:00 +22°C° 0 mm 3 m/S 648 mmHg 51%
    18:00 +21°C° 0,1 mm 2 m/S 648 mmHg 58%
    19:00 +19°C° 0,1 mm 2 m/S 648 mmHg 66%
    20:00 +18°C° 0,1 mm 1 m/S 648 mmHg 74%
    21:00 +18°C° 0 mm 1 m/S 649 mmHg 74%
    22:00 +18°C° 0 mm 1 m/S 649 mmHg 74%
    23:00 +16°C° 0 mm 1 m/S 649 mmHg 74%

    Morgen, 19 Juli, Donnerstag

    Zeit Temperatur Niederschläge Wind Luftdruck Luftfeuchtigkeit
    00:00 +16°C° 0 mm 1 m/S 648 mmHg 73%
    01:00 +16°C° 0 mm 1 m/S 648 mmHg 72%
    02:00 +16°C° 0 mm 1 m/S 648 mmHg 71%
    03:00 +16°C° 0 mm 2 m/S 648 mmHg 70%
    04:00 +16°C° 0 mm 2 m/S 647 mmHg 69%
    05:00 +16°C° 0 mm 2 m/S 647 mmHg 68%
    06:00 +16°C° 0 mm 2 m/S 647 mmHg 67%
    07:00 +16°C° 0 mm 2 m/S 647 mmHg 66%
    08:00 +17°C° 0 mm 2 m/S 648 mmHg 65%
    09:00 +18°C° 0 mm 3 m/S 648 mmHg 62%
    10:00 +20°C° 0 mm 4 m/S 648 mmHg 58%
    11:00 +21°C° 0 mm 5 m/S 649 mmHg 54%
    12:00 +21°C° 0,1 mm 6 m/S 648 mmHg 53%
    13:00 +21°C° 0,1 mm 6 m/S 648 mmHg 52%
    14:00 +21°C° 0,1 mm 6 m/S 647 mmHg 51%
    15:00 +20°C° 0,2 mm 5 m/S 647 mmHg 54%
    16:00 +19°C° 0,2 mm 5 m/S 647 mmHg 57%
    17:00 +17°C° 0,2 mm 5 m/S 647 mmHg 60%
    18:00 +16°C° 0 mm 5 m/S 647 mmHg 61%
    19:00 +15°C° 0 mm 4 m/S 648 mmHg 63%
    20:00 +14°C° 0 mm 4 m/S 648 mmHg 64%
    21:00 +13°C° 0 mm 4 m/S 648 mmHg 64%
    22:00 +12°C° 0 mm 4 m/S 648 mmHg 64%
    23:00 +12°C° 0 mm 4 m/S 648 mmHg 64%

    übermorgen, 20 Juli, Freitag

    Zeit Temperatur Niederschläge Wind Luftdruck Luftfeuchtigkeit
    00:00 +11°C° 0 mm 4 m/S 648 mmHg 64%
    01:00 +11°C° 0 mm 4 m/S 647 mmHg 63%
    02:00 +10°C° 0 mm 4 m/S 647 mmHg 62%
    03:00 +10°C° 0 mm 3 m/S 647 mmHg 61%
    04:00 +9°C° 0 mm 3 m/S 647 mmHg 60%
    05:00 +9°C° 0 mm 3 m/S 647 mmHg 59%
    06:00 +9°C° 0 mm 3 m/S 648 mmHg 58%
    07:00 +9°C° 0 mm 3 m/S 649 mmHg 58%
    08:00 +8°C° 0 mm 3 m/S 649 mmHg 57%
    09:00 +9°C° 0 mm 3 m/S 650 mmHg 53%
    10:00 +11°C° 0 mm 3 m/S 650 mmHg 48%
    11:00 +12°C° 0 mm 3 m/S 651 mmHg 44%
    12:00 +13°C° 0 mm 3 m/S 651 mmHg 41%
    13:00 +14°C° 0 mm 4 m/S 651 mmHg 39%
    14:00 +14°C° 0 mm 4 m/S 651 mmHg 37%
    15:00 +14°C° 0 mm 3 m/S 651 mmHg 39%
    16:00 +13°C° 0 mm 3 m/S 651 mmHg 41%
    17:00 +13°C° 0 mm 2 m/S 652 mmHg 43%
    18:00 +12°C° 0 mm 2 m/S 652 mmHg 48%
    19:00 +10°C° 0 mm 1 m/S 653 mmHg 54%
    20:00 +8°C° 0 mm 1 m/S 653 mmHg 60%
    21:00 +8°C° 0 mm 1 m/S 653 mmHg 60%
    22:00 +8°C° 0 mm 1 m/S 653 mmHg 59%
    23:00 +7°C° 0 mm 1 m/S 654 mmHg 59%

    21 Juli, Samstag

    Zeit Temperatur Niederschläge Wind Luftdruck Luftfeuchtigkeit
    00:00 +7°C° 0 mm 1 m/S 653 mmHg 58%
    01:00 +7°C° 0 mm 1 m/S 653 mmHg 57%
    02:00 +7°C° 0 mm 1 m/S 652 mmHg 55%
    03:00 +7°C° 0 mm 1 m/S 652 mmHg 55%
    04:00 +7°C° 0 mm 1 m/S 652 mmHg 54%
    05:00 +6°C° 0 mm 1 m/S 652 mmHg 54%
    06:00 +7°C° 0 mm 1 m/S 652 mmHg 53%
    07:00 +8°C° 0 mm 1 m/S 653 mmHg 51%
    08:00 +9°C° 0 mm 1 m/S 653 mmHg 50%
    09:00 +11°C° 0 mm 1 m/S 654 mmHg 44%
    10:00 +13°C° 0 mm 2 m/S 654 mmHg 39%
    11:00 +16°C° 0 mm 2 m/S 654 mmHg 34%
    12:00 +17°C° 0 mm 3 m/S 654 mmHg 32%
    13:00 +18°C° 0 mm 3 m/S 653 mmHg 29%
    14:00 +19°C° 0 mm 3 m/S 652 mmHg 26%
    15:00 +18°C° 0 mm 3 m/S 651 mmHg 28%
    16:00 +17°C° 0 mm 3 m/S 651 mmHg 30%
    17:00 +16°C° 0 mm 2 m/S 650 mmHg 32%
    18:00 +14°C° 0 mm 2 m/S 650 mmHg 37%
    19:00 +12°C° 0 mm 2 m/S 650 mmHg 41%
    20:00 +10°C° 0 mm 2 m/S 649 mmHg 46%
    21:00 +9°C° 0 mm 2 m/S 649 mmHg 47%
    22:00 +9°C° 0 mm 2 m/S 649 mmHg 48%
    23:00 +9°C° 0 mm 2 m/S 649 mmHg 49%

    22 Juli, Sonntag

    Zeit Temperatur Niederschläge Wind Luftdruck Luftfeuchtigkeit
    00:00 +9°C° 0 mm 2 m/S 648 mmHg 48%
    01:00 +9°C° 0 mm 2 m/S 648 mmHg 47%
    02:00 +8°C° 0 mm 2 m/S 647 mmHg 46%
    03:00 +8°C° 0 mm 2 m/S 647 mmHg 44%
    04:00 +8°C° 0 mm 2 m/S 647 mmHg 43%
    05:00 +8°C° 0 mm 2 m/S 647 mmHg 41%
    06:00 +9°C° 0 mm 2 m/S 647 mmHg 38%
    07:00 +10°C° 0 mm 2 m/S 648 mmHg 34%
    08:00 +12°C° 0 mm 2 m/S 649 mmHg 30%
    09:00 +16°C° 0 mm 2 m/S 650 mmHg 25%
    10:00 +19°C° 0 mm 2 m/S 651 mmHg 19%
    11:00 +24°C° 0 mm 2 m/S 652 mmHg 13%
    12:00 +25°C° 0 mm 2 m/S 652 mmHg 13%
    13:00 +26°C° 0 mm 2 m/S 651 mmHg 13%
    14:00 +27°C° 0 mm 2 m/S 651 mmHg 12%
    15:00 +25°C° 0 mm 2 m/S 651 mmHg 15%
    16:00 +24°C° 0 mm 2 m/S 651 mmHg 18%
    17:00 +23°C° 0 mm 2 m/S 651 mmHg 21%
    18:00 +19°C° 0 mm 2 m/S 651 mmHg 28%
    19:00 +16°C° 0 mm 1 m/S 652 mmHg 34%
    20:00 +13°C° 0 mm 1 m/S 652 mmHg 41%
    21:00 +13°C° 0 mm 1 m/S 652 mmHg 42%
    22:00 +12°C° 0 mm 1 m/S 652 mmHg 42%
    23:00 +12°C° 0 mm 1 m/S 652 mmHg 43%

    23 Juli, Montag

    Zeit Temperatur Niederschläge Wind Luftdruck Luftfeuchtigkeit
    00:00 +10°C° 0 mm 2 m/S 652 mmHg 43%
    01:00 +10°C° 0 mm 2 m/S 652 mmHg 42%
    02:00 +10°C° 0 mm 2 m/S 652 mmHg 42%
    03:00 +9°C° 0 mm 2 m/S 652 mmHg 42%
    04:00 +9°C° 0 mm 2 m/S 652 mmHg 43%
    05:00 +9°C° 0 mm 2 m/S 652 mmHg 43%
    06:00 +9°C° 0 mm 2 m/S 653 mmHg 43%
    07:00 +9°C° 0 mm 2 m/S 654 mmHg 43%
    08:00 +9°C° 0 mm 2 m/S 655 mmHg 44%
    09:00 +12°C° 0 mm 2 m/S 655 mmHg 41%
    10:00 +14°C° 0 mm 2 m/S 656 mmHg 38%
    11:00 +16°C° 0 mm 3 m/S 656 mmHg 35%
    12:00 +17°C° 0 mm 3 m/S 656 mmHg 35%
    13:00 +17°C° 0 mm 3 m/S 655 mmHg 35%
    14:00 +18°C° 0 mm 3 m/S 655 mmHg 35%
    15:00 +17°C° 0 mm 3 m/S 655 mmHg 39%
    16:00 +16°C° 0 mm 3 m/S 654 mmHg 43%
    17:00 +14°C° 0 mm 3 m/S 654 mmHg 47%
    18:00 +13°C° 0 mm 2 m/S 655 mmHg 53%
    19:00 +10°C° 0 mm 2 m/S 655 mmHg 58%
    20:00 +9°C° 0 mm 1 m/S 655 mmHg 63%
    21:00 +8°C° 0 mm 1 m/S 655 mmHg 64%
    22:00 +8°C° 0 mm 1 m/S 655 mmHg 65%
    23:00 +7°C° 0 mm 1 m/S 656 mmHg 66%
    Mehr zeigen